FW0527 Weather Reports


time (UTC)temp
C
wind
direction
speed
KPH
gust
KPH
rain 1hr
cm
rain 24hr
cm
rain mn
cm
humidity
%
barometer
mb
20260503034549 13 309 0.0 0.0 0.00 0.00 0.00 48 1010.2
20260503033042 15 309 0.0 0.0 0.00 0.00 0.00 54 1010.0
20260503031540 16 309 0.0 0.0 0.00 0.00 0.00 57 1010.0
20260503030046 17 309 0.0 0.0 0.00 0.00 0.00 54 1010.0
20260503024534 18 309 0.0 0.0 0.00 0.00 0.00 53 1009.9
20260503023034 19 309 0.0 0.0 0.00 0.00 0.00 51 1009.8
20260503021541 20 309 0.0 0.0 0.00 0.00 0.00 49 1009.8
20260503020033 20 309 0.0 0.0 0.00 0.00 0.00 46 1009.8
20260503014533 21 309 0.0 0.0 0.00 0.00 0.00 47 1009.7
20260503013032 21 309 0.0 0.0 0.00 0.00 0.00 49 1009.6
20260503011534 21 296 0.0 0.0 0.00 0.00 0.00 49 1009.4
20260503010030 22 302 0.0 0.0 0.00 0.00 0.00 49 1009.5
20260503004530 22 285 0.0 0.0 0.00 0.00 0.00 47 1009.4
20260503003029 22 279 0.0 0.0 0.00 0.00 0.00 41 1009.4
20260503001527 23 311 0.0 4.8 0.00 0.00 0.00 39 1009.4
20260503000033 23 292 0.0 1.6 0.00 0.00 0.00 36 1009.2
20260502234525 24 319 0.0 0.0 0.00 0.00 0.00 30 1009.2
20260502233025 24 313 0.0 8.0 0.00 0.00 0.00 29 1009.3
20260502231525 24 285 0.0 0.0 0.00 0.00 0.00 32 1009.0
20260502230023 24 329 0.0 12.9 0.00 0.00 0.00 29 1009.2
20260502224519 24 308 0.0 0.0 0.00 0.00 0.00 30 1009.4
20260502223018 25 355 0.0 12.9 0.00 0.00 0.00 37 1009.8
20260502221515 25 290 0.0 17.7 0.00 0.00 0.00 36 1010.1
20260502220012 26 289 0.0 16.1 0.00 0.00 0.00 33 1010.1
20260502214513 26 306 0.0 14.5 0.00 0.00 0.00 30 1010.3
20260502213009 27 282 0.0 1.6 0.00 0.00 0.00 29 1010.5
20260502211516 28 315 0.0 8.0 0.00 0.00 0.00 28 1010.4
20260502210006 28 338 0.0 3.2 0.00 0.00 0.00 27 1010.4
20260502204504 28 303 0.0 12.9 0.00 0.00 0.00 27 1010.7
20260502203001 28 217 0.0 9.7 0.00 0.00 0.00 29 1011.0
20260502201604 28 303 0.0 3.2 0.00 0.00 0.00 28 1011.1
20260502200105 28 210 0.0 0.0 0.00 0.00 0.00 21 1011.5
20260502194617 28 212 0.0 0.0 0.00 0.00 0.00 17 1011.3
20260502193059 28 12 0.0 0.0 0.00 0.00 0.00 17 1011.5
20260502191554 27 140 0.0 14.5 0.00 0.00 0.00 18 1011.5
20260502190104 27 150 0.0 17.7 0.00 0.00 0.00 18 1011.8
20260502184558 27 140 0.0 16.1 0.00 0.00 0.00 18 1011.8
20260502183051 28 84 1.6 14.5 0.00 0.00 0.00 17 1011.8
20260502181547 28 128 0.0 16.1 0.00 0.00 0.00 18 1012.1
20260502180106 27 144 0.0 4.8 0.00 0.00 0.00 19 1012.1
20260502163030 24 341 0.0 11.3 0.00 0.00 0.00 23 1012.3
20260502161525 23 111 0.0 6.4 0.00 0.00 0.00 24 1012.3
20260502151507 15 144 0.0 0.0 0.00 0.00 0.00 49 1012.7
20260502123045 9 121 0.0 0.0 0.00 0.00 0.00 63 1011.8
20260502121555 9 121 0.0 0.0 0.00 0.00 0.00 65 1011.8
20260502114542 9 121 0.0 0.0 0.00 0.00 0.00 64 1011.9
20260502113041 9 121 0.0 0.0 0.00 0.00 0.00 63 1011.8
20260502111542 9 121 0.0 0.0 0.00 0.00 0.00 63 1011.8
20260502110042 9 121 0.0 0.0 0.00 0.00 0.00 63 1011.7
20260502104544 9 121 0.0 0.0 0.00 0.00 0.00 65 1011.6
20260502103049 9 121 0.0 0.0 0.00 0.00 0.00 63 1011.6
20260502101555 9 121 0.0 0.0 0.00 0.00 0.00 62 1011.6
20260502071516 10 308 0.0 0.0 0.00 0.00 0.00 67 1012.8
20260502070021 10 308 0.0 0.0 0.00 0.00 0.00 67 1012.8
20260502064526 10 308 0.0 0.0 0.00 0.00 0.00 66 1012.6
20260502063013 10 308 0.0 0.0 0.00 0.00 0.00 68 1012.7
20260502061511 10 307 0.0 0.0 0.00 0.00 0.00 66 1012.8
20260502060011 11 307 0.0 0.0 0.00 0.00 0.00 67 1012.8
20260502054513 11 307 0.0 0.0 0.00 0.00 0.00 68 1012.8
20260502053011 11 307 0.0 0.0 0.00 0.00 0.00 68 1012.7
20260502051510 11 307 0.0 0.0 0.00 0.00 0.00 67 1012.6
20260502050010 11 307 0.0 0.0 0.00 0.00 0.00 69 1012.6
20260502044510 12 307 0.0 0.0 0.00 0.00 0.00 71 1012.6
20260502043014 12 307 0.0 0.0 0.00 0.00 0.00 67 1012.4
20260502041509 13 307 0.0 0.0 0.00 0.00 0.00 71 1012.3
20260502040012 13 307 0.0 0.0 0.00 0.00 0.00 71 1012.1